Location: Clatteringshaws Loch
(55.0508°N, 4.2860°W)
Time: 04:18:17
(UTC+01:00)

Amateur Radio Satellites - All Passes

Search period start: 31 July 2014 03:48
Search period end: 01 August 2014 03:48
Location: Clatteringshaws Loch, 55.0508°N, 4.2860°W

Satellite Date Start Highest point End Downlink Frequencies (MHz)
Time Altitude Azimuth
Oscar 16 31 Jul 03:49:54 03:54:58 58° 293° (WNW) 04:00:02 437.025 USB, Beacon 2401.1428
AO-7 31 Jul 03:51:15 03:55:38 15° 79° (E) 04:00:00 29.400 - 29.500 MHz
OPAL 31 Jul 03:53:41 03:58:38 78° 68° (ENE) 04:03:38 ?
ISS 31 Jul 04:05:48 04:08:55 35° 196° (SSW) 04:12:01 145.800 FM
ITAMSAT 1 31 Jul 04:14:46 04:19:57 72° 290° (WNW) 04:25:06 435.822 SSB
Uribyol 2 31 Jul 04:33:51 04:38:52 51° 295° (WNW) 04:43:50 436.500 FM
AO-27 31 Jul 04:34:38 04:39:41 52° 295° (WNW) 04:44:42 436.795 MHz FM
TMSAT-1 31 Jul 04:42:15 04:47:36 75° 104° (ESE) 04:52:53 436.925 FM
STRAND 1 31 Jul 04:44:30 04:46:58 14° 44° (NE) 04:49:25 ?
Sapphire 31 Jul 04:56:49 05:01:16 25° 349° (N) 05:05:42 437.095 MHz 1200 baud AX-25 AFSK
Oscar 19 31 Jul 05:01:09 05:05:01 22° 307° (NW) 05:08:53 437.125 CW, 437.150 USB
AO-Echo 31 Jul 05:01:32 05:06:05 32° 301° (WNW) 05:10:28 ?
MaSat-1 31 Jul 05:06:12 05:11:16 44° 41° (NE) 05:16:17 437.345 MHz
Gurwin Techsat 1B 31 Jul 05:08:06 05:13:21 59° 293° (WNW) 05:18:33 435.225 FM
JAS-1B 31 Jul 05:14:15 05:23:47 64° 298° (WNW) 05:32:08 435.800 - 435.900 CW/SSB
Uosat F 31 Jul 05:21:09 05:25:59 44° 99° (E) 05:30:45 435.120 FM
KITSAT 1 31 Jul 05:27:47 05:33:33 22° 104° (ESE) 05:39:20 435.175 FM
Oscar 16 31 Jul 05:30:37 05:33:23 15° 314° (NW) 05:36:09 437.025 USB, Beacon 2401.1428
PCSat 31 Jul 05:30:49 05:35:08 23° 358° (N) 05:39:27 145.825 MHz
OPAL 31 Jul 05:34:29 05:38:07 20° 268° (W) 05:41:48 ?
AO-7 31 Jul 05:42:16 05:50:29 56° 103° (ESE) 05:58:37 29.400 - 29.500 MHz
ISS 31 Jul 05:43:11 05:44:58 14° 215° (SW) 05:46:45 145.800 FM
ITAMSAT 1 31 Jul 05:55:18 05:58:41 18° 311° (NW) 06:02:02 435.822 SSB
Uribyol 2 31 Jul 06:14:53 06:17:18 13° 316° (NW) 06:19:42 436.500 FM
AO-27 31 Jul 06:15:39 06:18:10 14° 316° (NW) 06:20:42 436.795 MHz FM
STRAND 1 31 Jul 06:20:09 06:25:08 52° 66° (ENE) 06:30:08 ?
TMSAT-1 31 Jul 06:22:48 06:27:05 26° 305° (NW) 06:31:21 436.925 FM
Hamsat 31 Jul 06:25:24 06:28:39 21° 90° (E) 06:31:54 145.90 MHz
JAS-2 31 Jul 06:34:08 06:38:57 24° 86° (E) 06:43:22 435.800 - 435.900 CW/SSB, 435.910 FM
Sapphire 31 Jul 06:41:48 06:46:21 26° 15° (NNE) 06:50:53 437.095 MHz 1200 baud AX-25 AFSK
MaSat-1 31 Jul 06:43:38 06:48:47 52° 243° (WSW) 06:53:46 437.345 MHz
Gurwin Techsat 1B 31 Jul 06:49:21 06:52:22 16° 314° (NW) 06:55:22 435.225 FM
Uosat F 31 Jul 07:00:08 07:04:45 37° 299° (WNW) 07:09:20 435.120 FM
JAS-1B 31 Jul 07:05:03 07:12:35 27° 323° (NW) 07:19:34 435.800 - 435.900 CW/SSB
Saudisat 1A 31 Jul 07:06:49 07:09:11 14° 113° (ESE) 07:11:35 436.775 MHz
PCSat 31 Jul 07:15:15 07:20:07 32° 24° (NNE) 07:24:57 145.825 MHz
KITSAT 1 31 Jul 07:19:37 07:27:40 72° 127° (SE) 07:35:44 435.175 FM
AO-7 31 Jul 07:35:20 07:43:18 51° 306° (NW) 07:51:12 29.400 - 29.500 MHz
STRAND 1 31 Jul 08:00:02 08:04:35 31° 266° (W) 08:09:11 ?
Hamsat 31 Jul 08:00:45 08:05:01 62° 289° (WNW) 08:09:17 145.90 MHz
JAS-2 31 Jul 08:18:40 08:24:54 76° 290° (WNW) 08:30:23 435.800 - 435.900 CW/SSB, 435.910 FM
Oscar 10/S400 31 Jul 08:21:26 08:56:50 12° 256° (WSW) 09:48:57 145.825 - 145.975 CW/USB, Beacon 145.810 USB
MaSat-1 31 Jul 08:23:39 08:24:58 11° 263° (W) 08:26:17 437.345 MHz
Sapphire 31 Jul 08:25:31 08:30:53 55° 39° (NE) 08:36:13 437.095 MHz 1200 baud AX-25 AFSK
SO-67 31 Jul 08:35:12 08:38:42 65° 102° (ESE) 08:42:09 435.3500 MHz FM
Saudisat 1A 31 Jul 08:43:39 08:48:03 70° 133° (SE) 08:52:29 436.775 MHz
JAS-1B 31 Jul 08:55:00 08:59:56 15° 349° (NNW) 09:04:45 435.800 - 435.900 CW/SSB
PCSat 31 Jul 08:58:47 09:04:16 83° 48° (NE) 09:09:43 145.825 MHz
KITSAT 1 31 Jul 09:15:39 09:23:33 52° 332° (NNW) 09:31:28 435.175 FM
AO-7 31 Jul 09:28:32 09:34:24 22° 331° (NNW) 09:40:14 29.400 - 29.500 MHz
Hamsat 31 Jul 09:38:25 09:40:12 12° 309° (NW) 09:42:00 145.90 MHz
HO-68 31 Jul 09:49:40 09:56:14 37° 95° (E) 10:02:44 435.675 MHz FM
JAS-2 31 Jul 10:04:33 10:08:59 21° 315° (NW) 10:13:06 435.800 - 435.900 CW/SSB, 435.910 FM
Sapphire 31 Jul 10:09:10 10:14:16 42° 241° (WSW) 10:19:19 437.095 MHz 1200 baud AX-25 AFSK
SO-67 31 Jul 10:09:13 10:11:23 16° 301° (WNW) 10:13:32 435.3500 MHz FM
Saudisat 1A 31 Jul 10:23:51 10:27:59 36° 335° (NNW) 10:32:06 436.775 MHz
UKube-1 31 Jul 10:25:25 10:29:34 41° 99° (E) 10:33:41 145.840 MHz, 145.915 MHz
JAS-1B 31 Jul 10:41:31 10:46:46 16° 15° (NNE) 10:51:58 435.800 - 435.900 CW/SSB
PCSat 31 Jul 10:42:50 10:47:10 25° 249° (WSW) 10:51:28 145.825 MHz
Oscar 11 31 Jul 11:08:02 11:12:21 60° 102° (ESE) 11:16:39 145.825 FM, Beacon 2401.500 USB
KITSAT 1 31 Jul 11:13:13 11:20:42 38° 0° (N) 11:28:11 435.175 FM
AO-7 31 Jul 11:20:17 11:24:17 15° 358° (N) 11:28:17 29.400 - 29.500 MHz
Oscar 19 31 Jul 11:30:43 11:32:54 13° 43° (NE) 11:35:06 437.125 CW, 437.150 USB
FUNcube-1 31 Jul 11:35:54 11:39:57 46° 99° (E) 11:44:01 145.950 - 145.970 MHz USB
HO-68 31 Jul 11:37:20 11:44:24 65° 297° (WNW) 11:51:26 435.675 MHz FM
Oscar 16 31 Jul 11:57:46 12:01:17 19° 50° (NE) 12:04:49 437.025 USB, Beacon 2401.1428
UKube-1 31 Jul 12:01:50 12:05:44 32° 298° (WNW) 12:09:36 145.840 MHz, 145.915 MHz
Saudisat 1A 31 Jul 12:05:00 12:08:38 24° 359° (N) 12:12:16 436.775 MHz
SO-50 31 Jul 12:17:05 12:20:21 20° 116° (ESE) 12:23:41 436.795 FM
ITAMSAT 1 31 Jul 12:23:57 12:27:11 17° 48° (NE) 12:30:25 435.822 SSB
JAS-1B 31 Jul 12:26:26 12:34:15 30° 40° (NE) 12:42:11 435.800 - 435.900 CW/SSB
RS-15 31 Jul 12:40:27 12:49:04 28° 104° (ESE) 12:57:35 29.354 - 29.394 USB, Beacon 29.352 USB
Uribyol 2 31 Jul 12:41:53 12:45:47 22° 52° (NE) 12:49:41 436.500 FM
AO-27 31 Jul 12:42:53 12:46:48 22° 52° (NE) 12:50:43 436.795 MHz FM
Oscar 11 31 Jul 12:44:48 12:48:15 23° 301° (WNW) 12:51:41 145.825 FM, Beacon 2401.500 USB
TMSAT-1 31 Jul 12:55:13 12:57:14 12° 42° (NE) 12:59:16 436.925 FM
AO-Echo 31 Jul 13:04:31 13:09:03 29° 58° (ENE) 13:13:33 ?
Oscar 19 31 Jul 13:06:16 13:11:10 49° 65° (ENE) 13:16:07 437.125 CW, 437.150 USB
AO-7 31 Jul 13:08:35 13:14:06 20° 25° (NNE) 13:19:35 29.400 - 29.500 MHz
KITSAT 1 31 Jul 13:09:55 13:17:51 53° 28° (NNE) 13:25:43 435.175 FM
FUNcube-1 31 Jul 13:12:42 13:16:13 27° 299° (WNW) 13:19:44 145.950 - 145.970 MHz USB
Gurwin Techsat 1B 31 Jul 13:18:48 13:22:37 21° 51° (NE) 13:26:26 435.225 FM
HO-68 31 Jul 13:25:45 13:30:58 23° 320° (NW) 13:36:10 435.675 MHz FM
Oscar 16 31 Jul 13:34:50 13:39:57 80° 71° (ENE) 13:45:08 437.025 USB, Beacon 2401.1428
Saudisat 1A 31 Jul 13:45:16 13:49:19 34° 23° (NNE) 13:53:22 436.775 MHz
SO-50 31 Jul 13:55:50 14:00:21 89° 317° (NW) 14:05:01 436.795 FM
ITAMSAT 1 31 Jul 14:00:41 14:05:52 67° 69° (ENE) 14:11:03 435.822 SSB
UOSAT-12 31 Jul 14:04:46 14:08:01 19° 115° (ESE) 14:11:19 437.025 FM, 437.400 FM
JAS-1B 31 Jul 14:13:51 14:23:12 69° 64° (ENE) 14:33:03 435.800 - 435.900 CW/SSB
Uribyol 2 31 Jul 14:19:30 14:24:43 87° 253° (WSW) 14:29:56 436.500 FM
AO-27 31 Jul 14:20:31 14:25:45 88° 253° (WSW) 14:31:01 436.795 MHz FM
TMSAT-1 31 Jul 14:30:58 14:35:59 45° 63° (ENE) 14:41:01 436.925 FM
AO-Echo 31 Jul 14:42:14 14:47:31 64° 258° (WSW) 14:52:48 ?
Oscar 19 31 Jul 14:46:07 14:50:44 33° 265° (W) 14:55:23 437.125 CW, 437.150 USB
RS-15 31 Jul 14:48:43 14:59:43 77° 130° (SE) 15:10:38 29.354 - 29.394 USB, Beacon 29.352 USB
Gurwin Techsat 1B 31 Jul 14:56:36 15:01:55 83° 72° (ENE) 15:07:17 435.225 FM
AO-7 31 Jul 14:57:13 15:04:58 44° 51° (NE) 15:12:43 29.400 - 29.500 MHz
Uosat F 31 Jul 15:04:04 15:08:13 26° 56° (NE) 15:12:22 435.120 FM
KITSAT 1 31 Jul 15:05:39 15:13:41 70° 234° (SW) 15:21:41 435.175 FM
JAS-2 31 Jul 15:13:30 15:15:47 12° 32° (NNE) 15:18:00 435.800 - 435.900 CW/SSB, 435.910 FM
HO-68 31 Jul 15:14:58 15:16:13 11° 345° (NNW) 15:17:27 435.675 MHz FM
Oscar 16 31 Jul 15:16:13 15:19:58 20° 272° (W) 15:23:44 437.025 USB, Beacon 2401.1428
Saudisat 1A 31 Jul 15:24:53 15:29:20 81° 225° (SW) 15:33:45 436.775 MHz
SO-50 31 Jul 15:37:19 15:41:27 33° 340° (NNW) 15:45:42 436.795 FM
ITAMSAT 1 31 Jul 15:41:36 15:45:50 25° 269° (W) 15:50:06 435.822 SSB
UOSAT-12 31 Jul 15:42:54 15:47:34 85° 136° (SE) 15:52:20 437.025 FM, 437.400 FM
OPAL 31 Jul 15:58:43 16:00:01 11° 84° (E) 16:01:18 ?
Uribyol 2 31 Jul 16:01:35 16:04:58 17° 274° (W) 16:08:23 436.500 FM
AO-27 31 Jul 16:02:34 16:06:03 18° 273° (W) 16:09:32 436.795 MHz FM
JAS-1B 31 Jul 16:05:14 16:14:09 46° 268° (W) 16:23:38 435.800 - 435.900 CW/SSB
TMSAT-1 31 Jul 16:11:05 16:16:01 39° 264° (W) 16:20:59 436.925 FM
AO-Echo 31 Jul 16:25:01 16:27:20 13° 278° (W) 16:29:39 ?
Gurwin Techsat 1B 31 Jul 16:38:43 16:42:35 20° 272° (W) 16:46:29 435.225 FM
Uosat F 31 Jul 16:41:38 16:46:40 67° 256° (WSW) 16:51:43 435.120 FM
AO-7 31 Jul 16:49:11 16:57:30 67° 254° (WSW) 17:05:53 29.400 - 29.500 MHz
JAS-2 31 Jul 16:52:36 16:59:02 33° 55° (NE) 17:04:57 435.800 - 435.900 CW/SSB, 435.910 FM
HO-68 31 Jul 17:00:22 17:00:52 10° 12° (NNE) 17:01:22 435.675 MHz FM
RS-15 31 Jul 17:01:59 17:12:47 59° 339° (NNW) 17:23:40 29.354 - 29.394 USB, Beacon 29.352 USB
KITSAT 1 31 Jul 17:02:06 17:07:46 21° 257° (WSW) 17:13:24 435.175 FM
Saudisat 1A 31 Jul 17:05:28 17:08:18 17° 245° (WSW) 17:11:07 436.775 MHz
SO-50 31 Jul 17:19:18 17:23:12 26° 4° (N) 17:27:10 436.795 FM
UOSAT-12 31 Jul 17:23:53 17:28:13 35° 338° (NNW) 17:32:35 437.025 FM, 437.400 FM
Hamsat 31 Jul 17:25:33 17:29:22 35° 64° (ENE) 17:33:14 145.90 MHz
OPAL 31 Jul 17:34:58 17:39:59 58° 105° (ESE) 17:45:02 ?
SO-67 31 Jul 17:45:52 17:46:03 10° 54° (NE) 17:46:14 435.3500 MHz FM
JAS-1B 31 Jul 18:03:13 18:07:30 14° 293° (WNW) 18:11:54 435.800 - 435.900 CW/SSB
Uosat F 31 Jul 18:24:16 18:26:27 13° 277° (W) 18:28:38 435.120 FM
JAS-2 31 Jul 18:35:58 18:43:38 81° 255° (WSW) 18:50:36 435.800 - 435.900 CW/SSB, 435.910 FM
HO-68 31 Jul 18:41:03 18:46:01 21° 38° (NE) 18:51:00 435.675 MHz FM
AO-7 31 Jul 18:46:26 18:52:00 19° 277° (W) 18:57:35 29.400 - 29.500 MHz
SO-50 31 Jul 19:00:19 19:04:48 42° 28° (NNE) 19:09:21 436.795 FM
Hamsat 31 Jul 19:01:31 19:05:22 35° 264° (W) 19:09:16 145.90 MHz
UOSAT-12 31 Jul 19:05:32 19:09:31 26° 2° (N) 19:13:32 437.025 FM, 437.400 FM
OPAL 31 Jul 19:14:15 19:18:40 31° 305° (NW) 19:23:06 ?
SO-67 31 Jul 19:15:00 19:18:28 69° 73° (ENE) 19:21:57 435.3500 MHz FM
RS-15 31 Jul 19:16:36 19:27:17 54° 12° (NNE) 19:38:09 29.354 - 29.394 USB, Beacon 29.352 USB
UKube-1 31 Jul 19:53:36 19:56:27 17° 53° (NE) 19:59:17 145.840 MHz, 145.915 MHz
STRAND 1 31 Jul 20:02:26 20:07:28 53° 101° (E) 20:12:27 ?
JAS-2 31 Jul 20:23:55 20:29:35 23° 275° (W) 20:34:56 435.800 - 435.900 CW/SSB, 435.910 FM
HO-68 31 Jul 20:25:29 20:32:28 59° 61° (ENE) 20:39:28 435.675 MHz FM
Oscar 11 31 Jul 20:35:22 20:38:31 20° 56° (ENE) 20:41:40 145.825 FM, Beacon 2401.500 USB
SO-50 31 Jul 20:40:57 20:45:36 60° 230° (SW) 20:50:19 436.795 FM
MaSat-1 31 Jul 20:42:34 20:45:46 20° 104° (ESE) 20:49:15 437.345 MHz
UOSAT-12 31 Jul 20:46:16 20:50:45 40° 26° (NNE) 20:55:14 437.025 FM, 437.400 FM
SO-67 31 Jul 20:50:15 20:51:59 13° 272° (W) 20:53:43 435.3500 MHz FM
FUNcube-1 31 Jul 21:05:00 21:07:39 16° 55° (NE) 21:10:17 145.950 - 145.970 MHz USB
UKube-1 31 Jul 21:27:42 21:32:05 88° 73° (ENE) 21:36:30 145.840 MHz, 145.915 MHz
RS-15 31 Jul 21:29:54 21:40:57 87° 42° (NE) 21:52:17 29.354 - 29.394 USB, Beacon 29.352 USB
STRAND 1 31 Jul 21:41:58 21:46:29 32° 301° (WNW) 21:50:59 ?
Oscar 11 31 Jul 22:09:59 22:14:17 72° 257° (WSW) 22:18:38 145.825 FM, Beacon 2401.500 USB
HO-68 31 Jul 22:13:46 22:20:29 42° 263° (W) 22:27:14 435.675 MHz FM
MaSat-1 31 Jul 22:17:52 22:22:23 85° 307° (NW) 22:27:31 437.345 MHz
SO-50 31 Jul 22:23:14 22:25:19 13° 249° (WSW) 22:27:25 436.795 FM
UOSAT-12 31 Jul 22:26:30 22:31:13 66° 228° (SW) 22:35:54 437.025 FM, 437.400 FM
FUNcube-1 31 Jul 22:39:16 22:43:32 89° 257° (WSW) 22:47:46 145.950 - 145.970 MHz USB
UKube-1 31 Jul 23:06:26 23:08:57 15° 273° (W) 23:11:29 145.840 MHz, 145.915 MHz
RS-15 31 Jul 23:42:36 23:52:21 39° 249° (WSW) 00:02:24 29.354 - 29.394 USB, Beacon 29.352 USB
Oscar 11 31 Jul 23:49:57 23:51:18 11° 276° (W) 23:52:40 145.825 FM, Beacon 2401.500 USB
PCSat 31 Jul 23:50:05 23:53:11 16° 105° (ESE) 23:56:17 145.825 MHz
MaSat-1 31 Jul 23:56:23 00:00:28 27° 330° (NNW) 00:04:52 437.345 MHz
ISS 01 Aug 00:04:59 00:07:32 20° 151° (SSE) 00:10:05 145.800 FM
UOSAT-12 01 Aug 00:08:03 00:10:34 14° 249° (WSW) 00:13:04 437.025 FM, 437.400 FM
FUNcube-1 01 Aug 00:18:29 00:20:36 13° 274° (W) 00:22:43 145.950 - 145.970 MHz USB
Sapphire 01 Aug 00:57:39 01:02:41 41° 119° (ESE) 01:07:45 437.095 MHz 1200 baud AX-25 AFSK
PCSat 01 Aug 01:30:18 01:35:40 69° 126° (SE) 01:41:06 145.825 MHz
MaSat-1 01 Aug 01:36:13 01:39:27 17° 355° (N) 01:42:48 437.345 MHz
Oscar 16 01 Aug 01:40:09 01:43:31 17° 86° (E) 01:46:53 437.025 USB, Beacon 2401.1428
ISS 01 Aug 01:40:33 01:43:45 43° 171° (S) 01:46:58 145.800 FM
OPAL 01 Aug 01:43:52 01:45:45 12° 39° (NE) 01:47:39 ?
JAS-1B 01 Aug 01:53:38 01:59:14 17° 71° (ENE) 02:04:25 435.800 - 435.900 CW/SSB
ITAMSAT 1 01 Aug 02:07:44 02:10:24 14° 84° (E) 02:13:03 435.822 SSB
Uribyol 2 01 Aug 02:25:39 02:29:26 20° 88° (E) 02:33:11 436.500 FM
AO-27 01 Aug 02:27:00 02:30:47 20° 88° (E) 02:34:33 436.795 MHz FM
Sapphire 01 Aug 02:40:43 02:46:03 55° 320° (NW) 02:51:25 437.095 MHz 1200 baud AX-25 AFSK
AO-Echo 01 Aug 02:42:46 02:47:04 27° 91° (E) 02:51:13 ?
Oscar 19 01 Aug 02:49:31 02:54:36 53° 100° (E) 02:59:39 437.125 CW, 437.150 USB
Gurwin Techsat 1B 01 Aug 03:06:11 03:10:05 20° 88° (E) 03:13:57 435.225 FM
PCSat 01 Aug 03:14:24 03:19:29 39° 329° (NNW) 03:24:36 145.825 MHz
MaSat-1 01 Aug 03:14:49 03:18:38 20° 19° (NNE) 03:22:31 437.345 MHz
ISS 01 Aug 03:16:58 03:20:10 41° 191° (S) 03:23:22 145.800 FM
Oscar 16 01 Aug 03:18:27 03:23:40 87° 107° (ESE) 03:28:51 437.025 USB, Beacon 2401.1428
OPAL 01 Aug 03:18:51 03:23:32 44° 60° (ENE) 03:28:16 ?
